Change the Weather History Date:

Saturday, September 28, 2013

  Actual Average (KHGR) Record (KHGR)
Temperature  
Mean Temperature 60 °F -  
Max Temperature 68 °F 68 °F 77 °F (1998)
Min Temperature 51 °F 50 °F 44 °F (2001)
Degree Days  
Heating Degree Days 5    
Growing Degree Days 10 (Base 50)    
Moisture  
Dew Point 51 °F    
Average Humidity 75    
Maximum Humidity 87    
Minimum Humidity 50    
Precipitation  
Precipitation 0.00 in - - ()
Sea Level Pressure  
Sea Level Pressure 30.26 in    
Wind  
Wind Speed 0 mph (NNE)    
Max Wind Speed 5 mph    
Max Gust Speed -    
Visibility 9 miles    
Events      
Averages and records for this station are not official NWS values.
T = Trace of Precipitation, MM = Missing Value Source: NWS Daily Summary

Daily Weather History Graph

Daily Weather History Graph

Search for Another Location

Airport or City:

Trip Planner

Search our weather history database for the weather conditions in past years. The results will help you decide how hot, cold, wet, or windy it might be!

Date:

Astronomy

Sep. 28, 2013 Rise Set
Actual Time 7:03 AM EDT 6:56 PM EDT
Civil Twilight 6:36 AM EDT 7:23 PM EDT
Nautical Twilight 6:05 AM EDT 7:54 PM EDT
Astronomical Twilight 5:33 AM EDT 8:26 PM EDT
Moon 12:49 AM EDT (9/28) 3:13 PM EDT (9/28)
Length of Visible Light 12h 47m
Length of Day
11h 53m
Last Quarter, 36% of the Moon is Illuminated
Sep 28
Last Quarter
Oct 4
New
Oct 11
First Quarter
Oct 18
Full
Oct 26
Last Quarter

Hourly Weather History & Observations

Time (EDT) Temp. Dew Point Humidity Pressure Visibility Wind Dir Wind Speed Gust Speed Precip Events Conditions
12:53 AM 53.1 °F 48.9 °F 86% 30.24 in 6.0 mi Calm Calm - N/A   Clear
1:53 AM 55.0 °F 51.1 °F 86% 30.24 in 7.0 mi Calm Calm - N/A   Mostly Cloudy
2:53 AM 55.9 °F 51.1 °F 84% 30.24 in 7.0 mi Calm Calm - N/A   Overcast
3:53 AM 55.0 °F 51.1 °F 86% 30.24 in 6.0 mi Calm Calm - N/A   Overcast
4:53 AM 55.9 °F 52.0 °F 87% 30.25 in 6.0 mi Calm Calm - N/A   Overcast
5:53 AM 55.0 °F 51.1 °F 86% 30.26 in 4.0 mi Calm Calm - N/A   Overcast
6:53 AM 55.9 °F 51.1 °F 84% 30.27 in 8.0 mi Calm Calm - N/A   Overcast
7:53 AM 55.9 °F 52.0 °F 87% 30.30 in 6.0 mi Calm Calm - N/A   Overcast
8:53 AM 57.9 °F 54.0 °F 87% 30.31 in 8.0 mi Calm Calm - N/A   Overcast
9:53 AM 61.0 °F 55.0 °F 81% 30.31 in 10.0 mi Calm Calm - N/A   Overcast
10:53 AM 64.0 °F 50.0 °F 60% 30.31 in 10.0 mi Calm Calm - N/A   Overcast
11:53 AM 66.0 °F 51.1 °F 59% 30.31 in 10.0 mi Variable 4.6 mph - N/A   Overcast
12:53 PM 66.9 °F 50.0 °F 54% 30.30 in 10.0 mi Calm Calm - N/A   Overcast
1:53 PM 66.0 °F 48.9 °F 54% 30.28 in 10.0 mi NNE 4.6 mph - N/A   Overcast
2:53 PM 68.0 °F 48.9 °F 50% 30.26 in 10.0 mi Calm Calm - N/A   Overcast
3:53 PM 66.0 °F 48.9 °F 54% 30.25 in 10.0 mi Calm Calm - N/A   Overcast
4:53 PM 66.9 °F 48.9 °F 52% 30.24 in 10.0 mi Calm Calm - N/A   Overcast
5:53 PM 66.0 °F 52.0 °F 60% 30.24 in 10.0 mi Calm Calm - N/A   Clear
6:53 PM 59.0 °F 52.0 °F 78% 30.24 in 9.0 mi Calm Calm - N/A   Clear
7:53 PM 55.9 °F 51.1 °F 84% 30.25 in 10.0 mi Calm Calm - N/A   Clear
8:53 PM 54.0 °F 50.0 °F 86% 30.25 in 10.0 mi Calm Calm - N/A   Clear
9:53 PM 52.0 °F 48.0 °F 86% 30.25 in 10.0 mi Calm Calm - N/A   Clear
10:53 PM 52.0 °F 48.0 °F 86% 30.24 in 10.0 mi Calm Calm - N/A   Clear
11:53 PM 51.1 °F 46.9 °F 86% 30.22 in 10.0 mi Calm Calm - N/A   Mostly Cloudy